Location: *
(35.8942°N, 23.3025°E)
Time: 05:47:01
(UTC+00:00)

Tiangong - Visible Passes

Search period start: 08 December 2023 00:00
Search period end: 18 December 2023 00:00
Orbit: 372 x 383 km, 41.5° (Epoch: 07 December)

Date Brightness Start Highest point End Pass type
(mag) Time Alt. Az. Time Alt. Az. Time Alt. Az.
13 Dec 0.9 04:51:35 10° S 04:53:41 17° SE 04:55:49 10° E visible
15 Dec -0.2 04:23:31 10° SSW 04:26:16 29° SSE 04:29:02 10° E visible
16 Dec 0.6 03:23:52 15° SSE 03:24:26 15° SE 03:26:20 10° ESE visible
16 Dec -2.2 04:57:42 10° WSW 05:00:48 82° NNW 05:03:55 10° ENE visible
17 Dec -1.5 03:57:48 34° SSW 03:58:47 52° SSE 04:01:50 10° ENE visible
